TimeAKST,TemperatureF,Dew PointF,Humidity,Sea Level PressureIn,VisibilityMPH,Wind Direction,Wind SpeedMPH,Gust SpeedMPH,PrecipitationIn,Events,Conditions,WindDirDegrees,DateUTC
12:53 AM,26.1,16.0,66,29.99,10.0,West,4.6,-,N/A,,Overcast,280,2013-12-24 09:53:00
1:53 AM,28.0,19.0,69,29.97,10.0,West,4.6,-,N/A,,Mostly Cloudy,280,2013-12-24 10:53:00
3:53 AM,33.1,21.9,64,29.91,10.0,NE,12.7,-,N/A,,Overcast,40,2013-12-24 12:53:00
4:53 AM,34.0,21.9,61,29.88,10.0,NE,13.8,-,N/A,,Overcast,40,2013-12-24 13:53:00
5:53 AM,35.1,25.0,67,29.86,10.0,NE,17.3,-,N/A,,Overcast,40,2013-12-24 14:53:00
6:53 AM,36.0,26.1,67,29.84,10.0,ENE,18.4,23.0,N/A,,Overcast,60,2013-12-24 15:53:00
7:53 AM,36.0,27.0,70,29.80,10.0,NE,20.7,-,N/A,,Overcast,40,2013-12-24 16:53:00
8:04 AM,37.4,26.6,65,29.79,10.0,NE,19.6,26.5,N/A,,Overcast,40,2013-12-24 17:04:00
8:53 AM,36.0,30.0,79,29.77,5.0,NNE,21.9,31.1,0.00,Snow,Light Snow,30,2013-12-24 17:53:00
9:26 AM,35.6,32.0,87,29.75,5.0,NNE,26.5,32.2,0.00,Snow,Light Snow,30,2013-12-24 18:26:00
9:53 AM,36.0,33.1,89,29.75,7.0,NNE,25.3,34.5,0.00,Snow,Light Snow,30,2013-12-24 18:53:00
10:37 AM,35.6,33.8,93,29.73,2.5,NNE,25.3,33.4,0.01,Snow,Light Snow,30,2013-12-24 19:37:00
10:53 AM,35.1,32.0,89,29.73,1.5,NNE,27.6,38.0,0.01,Snow,Light Snow,30,2013-12-24 19:53:00
10:58 AM,35.6,33.8,93,29.72,2.5,NNE,29.9,36.8,0.01,Snow,Light Snow,20,2013-12-24 19:58:00
11:53 AM,35.1,32.0,89,29.70,2.0,NNE,27.6,38.0,0.02,Snow,Light Snow,20,2013-12-24 20:53:00
12:53 PM,35.1,32.0,89,29.66,2.0,NNE,32.2,39.1,0.03,Snow,Light Snow,20,2013-12-24 21:53:00
12:58 PM,35.6,32.0,87,29.65,1.5,NNE,31.1,40.3,0.00,Snow,Light Snow,20,2013-12-24 21:58:00
1:53 PM,35.1,32.0,89,29.64,1.5,NNE,29.9,41.4,0.02,Snow,Light Snow,20,2013-12-24 22:53:00
2:53 PM,35.1,33.1,92,29.61,1.5,NNE,28.8,40.3,0.01,Snow,Light Snow,20,2013-12-24 23:53:00
3:00 PM,35.6,32.0,87,29.61,1.5,North,18.4,40.3,0.03,Snow,Light Snow,10,2013-12-25 00:00:00
3:03 PM,35.6,32.0,87,29.61,1.5,NNE,29.9,41.4,0.03,Snow,Light Snow,20,2013-12-25 00:03:00
3:32 PM,33.8,32.0,93,29.59,1.0,North,19.6,31.1,0.06,Snow,Light Snow,10,2013-12-25 00:32:00
3:53 PM,34.0,32.0,92,29.59,1.0,North,17.3,31.1,0.09,Snow,Light Snow,360,2013-12-25 00:53:00
4:53 PM,34.0,32.0,92,29.58,1.0,North,20.7,29.9,0.07,Snow,Light Snow,10,2013-12-25 01:53:00
5:53 PM,34.0,30.9,89,29.56,1.0,North,17.3,33.4,0.04,Snow,Light Snow,360,2013-12-25 02:53:00
6:53 PM,35.1,30.9,85,29.56,1.8,North,17.3,36.8,0.03,Snow,Light Snow,360,2013-12-25 03:53:00
7:53 PM,32.0,28.9,88,29.57,2.0,NW,18.4,24.2,0.01,Snow,Light Snow,310,2013-12-25 04:53:00
8:39 PM,30.2,28.4,93,29.56,1.5,NW,20.7,28.8,0.00,Snow,Light Snow,310,2013-12-25 05:39:00
8:53 PM,30.9,28.0,89,29.57,1.2,NW,20.7,27.6,0.00,Snow,Light Snow,310,2013-12-25 05:53:00
9:38 PM,30.2,28.4,93,29.57,3.0,WNW,18.4,28.8,0.00,Snow,Light Snow,300,2013-12-25 06:38:00
9:53 PM,30.9,28.0,89,29.57,3.0,NW,19.6,27.6,0.01,Snow,Light Snow,310,2013-12-25 06:53:00
10:53 PM,30.9,28.0,89,29.59,4.0,WNW,20.7,28.8,0.00,,Overcast,300,2013-12-25 07:53:00
11:53 PM,30.9,28.0,89,29.60,9.0,WNW,21.9,28.8,N/A,,Overcast,290,2013-12-25 08:53:00